パンスターズ彗星

C/2021 QM45 ( PanSTARRS )

English version
Home page
Updated on September 11, 2022

---------------------------------------------------------------------

・ プロフィール

発見日 2021年8月17日
発見光度 22.4等
発見者 Pan-STARRS 1 telescope (Haleakala)

・ 写真集

・ 軌道要素

Epoch 2022 Aug. 9.0 TT = JDT 2459800.5                                          
T 2022 Aug. 13.43342 TT                                 Rudenko                 
q   2.7732686            (2000.0)            P               Q                  
z  +0.0028542      Peri.   72.80393     +0.37736234     -0.92534299             
 +/-0.0000017      Node   354.58863     +0.63128145     +0.28593956             
e   0.9920846      Incl.   22.82229     +0.67755546     +0.24895564             
From 87 observations 2021 Aug. 4-2022 June 30, mean residual 0".4.              

・ 光度変化

        m1 = 8.5 + 5 logΔ + 15.0 log r

---------------------------------------------------------------------

軌道要素はM.P.E.C. 2022-N12に掲載されたものです。
光度グラフはComet for Windowsで作成したものです。

---------------------------------------------------------------------

Copyright(C) Seiichi Yoshida (comet@aerith.net). All rights reserved.